Weather History for Avalon, CA

Change the Weather History Date:

Thursday, January 9, 2014

  Actual Average Record
Temperature  
Mean Temperature 52 °F -  
Max Temperature 57 °F 58 °F 75 °F (2007)
Min Temperature 48 °F 49 °F 43 °F (2011)
Degree Days  
Heating Degree Days 12    
Growing Degree Days 2 (Base 50)    
Moisture  
Dew Point 46 °F    
Average Humidity 81    
Maximum Humidity 93    
Minimum Humidity 59    
Precipitation  
Precipitation 0.00 in - - ()
Sea Level Pressure  
Sea Level Pressure 30.05 in    
Wind  
Wind Speed 5 mph (SE)    
Max Wind Speed 12 mph    
Max Gust Speed -    
Visibility 7 miles    
Events Fog    
Averages and records for this station are not official NWS values.
T = Trace of Precipitation, MM = Missing Value Source: NWS Daily Summary

Daily Weather History Graph

Daily Weather History Graph

Search for Another Location

Airport:

Trip Planner

Search our weather history database for the weather conditions in past years. The results will help you decide how hot, cold, wet, or windy it might be!

Date:

Astronomy

Jan. 09, 2014 Rise Set
Actual Time 6:58 AM PST 5:03 PM PST
Civil Twilight 6:31 AM PST 5:30 PM PST
Nautical Twilight 6:00 AM PST 6:01 PM PST
Astronomical Twilight 5:30 AM PST 6:31 PM PST
Moon 12:27 PM PST (1/9) 1:17 AM PST (1/9)
Length of Visible Light 10h 59m
Length of Day
10h 05m
Waxing Gibbous, 67% of the Moon is Illuminated
Jan 9
Waxing Gibbous
Jan 15
Full
Jan 23
Last Quarter
Jan 30
New
Feb 6
First Quarter

Hourly Weather History & Observations

Time (PST) Temp. Dew Point Humidity Pressure Visibility Wind Dir Wind Speed Gust Speed Precip Events Conditions
12:51 AM 52.0 °F 43.0 °F 71% 30.05 in 10.0 mi SE 5.8 mph - N/A   Clear
1:51 AM 52.0 °F 41.0 °F 66% 30.04 in 10.0 mi Calm Calm - N/A   Clear
2:51 AM 51.1 °F 43.0 °F 74% 30.05 in 10.0 mi NNW 4.6 mph - N/A   Clear
2:54 AM 51.8 °F 44.6 °F 76% 30.06 in 0.8 mi NNW 5.8 mph - N/A   Haze
3:06 AM 48.2 °F 46.4 °F 93% 30.05 in 0.2 mi SSE 3.5 mph - N/A Fog Fog
3:12 AM 48.2 °F 44.6 °F 87% 30.05 in 1.5 mi SSE 4.6 mph - N/A   Mist
3:15 AM 48.2 °F 44.6 °F 87% 30.05 in 4.0 mi SE 3.5 mph - N/A   Mist
3:40 AM 50.0 °F 46.4 °F 87% 30.05 in 5.0 mi Calm Calm - N/A   Partly Cloudy
3:51 AM 48.9 °F 46.0 °F 90% 30.03 in 8.0 mi Calm Calm - N/A   Partly Cloudy
4:40 AM 48.2 °F 46.4 °F 93% 30.04 in 1.0 mi SE 4.6 mph - N/A   Mist
4:47 AM 48.2 °F 46.4 °F 93% 30.05 in 0.2 mi ESE 4.6 mph - N/A Fog Fog
4:51 AM 48.9 °F 46.9 °F 93% 30.04 in 0.2 mi SE 3.5 mph - N/A Fog Fog
5:28 AM 48.2 °F 46.4 °F 93% 30.04 in 1.2 mi SE 4.6 mph - N/A   Overcast
5:34 AM 48.2 °F 46.4 °F 93% 30.06 in 3.0 mi Calm Calm - N/A   Mostly Cloudy
5:49 AM 48.2 °F 46.4 °F 93% 30.06 in 10.0 mi Calm Calm - N/A   Scattered Clouds
5:51 AM 48.0 °F 46.0 °F 93% 30.06 in 10.0 mi Calm Calm - N/A   Partly Cloudy
6:16 AM 48.2 °F 46.4 °F 93% 30.05 in 6.0 mi ESE 6.9 mph - N/A   Mostly Cloudy
6:46 AM 48.2 °F 46.4 °F 93% 30.05 in 6.0 mi SE 8.1 mph - N/A   Scattered Clouds
6:51 AM 48.9 °F 46.9 °F 93% 30.04 in 7.0 mi SE 6.9 mph - N/A   Partly Cloudy
7:51 AM 50.0 °F 48.0 °F 93% 30.06 in 7.0 mi SSE 5.8 mph - N/A   Clear
8:51 AM 57.0 °F 43.0 °F 59% 30.08 in 10.0 mi Calm Calm - N/A   Clear
9:51 AM 54.0 °F 46.0 °F 75% 30.11 in 10.0 mi WSW 4.6 mph - N/A   Clear
10:51 AM 55.0 °F 48.0 °F 77% 30.09 in 10.0 mi West 5.8 mph - N/A   Clear
11:51 AM 55.0 °F 48.0 °F 77% 30.06 in 10.0 mi WSW 6.9 mph - N/A   Clear
12:51 PM 55.9 °F 48.9 °F 77% 30.04 in 9.0 mi NW 11.5 mph - N/A   Scattered Clouds
1:00 PM 53.6 °F 48.2 °F 82% 30.04 in 4.0 mi NW 11.5 mph - N/A   Haze
1:23 PM 55.4 °F 48.2 °F 77% 30.03 in 10.0 mi WNW 8.1 mph - N/A   Scattered Clouds
1:51 PM 55.0 °F 48.9 °F 80% 30.01 in 7.0 mi West 6.9 mph - N/A   Partly Cloudy
3:51 PM 54.0 °F 45.0 °F 72% 30.02 in 9.0 mi West 10.4 mph - N/A   Clear
4:51 PM 52.0 °F 46.0 °F 80% 30.01 in 5.0 mi West 11.5 mph - N/A   Haze
5:51 PM 54.0 °F 41.0 °F 62% 30.03 in 10.0 mi NNW 9.2 mph - N/A   Clear
6:51 PM 53.1 °F 43.0 °F 69% 30.03 in 10.0 mi NNW 8.1 mph - N/A   Clear
7:51 PM 52.0 °F 44.1 °F 74% 30.04 in 10.0 mi North 4.6 mph - N/A   Clear
8:51 PM 52.0 °F 46.9 °F 83% 30.04 in 10.0 mi NNW 5.8 mph - N/A   Clear
9:51 PM 52.0 °F 46.0 °F 80% 30.05 in 10.0 mi NE 6.9 mph - N/A   Clear
10:51 PM 53.1 °F 44.1 °F 71% 30.06 in 10.0 mi ENE 6.9 mph - N/A   Clear
11:51 PM 54.0 °F 41.0 °F 62% 30.05 in 10.0 mi NE 9.2 mph - N/A   Clear